FDC1601 KSBN-KCHA

Flight info

Callsign FDC1601
Flight time 0h 59m
Altitude 35000
Route GOTNE IIU
Aircraft B752/M-SDE3FHIM3RW/LB1

Departure

Time 2026-04-20 14:50
Airport South Bend International Airport (KSBN)

Arrival

Time 2026-04-20 15:50
Airport Chattanooga Metropolitan Airport (Lovell Field) (KCHA)
Time Latitude Longitude Altitude Speed Heading
2026-04-20 14:36 41.70208 -86.32241 809 ft 0 kts 116°
2026-04-20 14:47 41.70208 -86.32240 809 ft 0 kts 116°
2026-04-20 14:47 41.70207 -86.32240 809 ft 0 kts 116°
2026-04-20 14:48 41.70297 -86.32111 809 ft 17 kts
2026-04-20 14:48 41.70333 -86.32236 809 ft 19 kts 268°
2026-04-20 14:48 41.70329 -86.32434 809 ft 22 kts 267°
2026-04-20 14:48 41.70325 -86.32638 809 ft 21 kts 269°
2026-04-20 14:49 41.70322 -86.32819 809 ft 18 kts 269°
2026-04-20 14:49 41.70374 -86.32927 809 ft 13 kts 349°
2026-04-20 14:49 41.70435 -86.32883 809 ft 7 kts 84°
2026-04-20 14:49 41.70435 -86.32872 809 ft 3 kts 89°
2026-04-20 14:50 41.70439 -86.32585 809 ft 66 kts 89°
2026-04-20 14:50 41.70455 -86.31627 809 ft 139 kts 89°
2026-04-20 14:50 41.70473 -86.30659 935 ft 170 kts 88°
2026-04-20 14:50 41.70507 -86.28286 1730 ft 214 kts 90°
2026-04-20 14:51 41.70378 -86.26239 2310 ft 229 kts 105°
2026-04-20 14:51 41.69902 -86.24967 2713 ft 234 kts 126°
2026-04-20 14:51 41.68054 -86.23407 3535 ft 246 kts 167°
2026-04-20 14:51 41.66893 -86.23323 3961 ft 249 kts 184°
2026-04-20 14:52 41.65177 -86.23663 4579 ft 253 kts 190°
2026-04-20 14:52 41.63423 -86.24027 5183 ft 254 kts 187°
2026-04-20 14:52 41.61666 -86.24195 5780 ft 256 kts 181°
2026-04-20 14:52 41.59866 -86.24137 6390 ft 258 kts 176°
2026-04-20 14:53 41.58081 -86.23889 6995 ft 260 kts 172°
2026-04-20 14:53 41.56281 -86.23504 7603 ft 263 kts 169°
2026-04-20 14:53 41.54472 -86.23029 8209 ft 265 kts 168°
2026-04-20 14:53 41.52661 -86.22497 8811 ft 267 kts 167°
2026-04-20 14:54 41.50833 -86.21940 9416 ft 270 kts 167°
2026-04-20 14:54 41.49011 -86.21379 10014 ft 272 kts 167°
2026-04-20 14:54 41.47160 -86.20790 10618 ft 275 kts 166°
2026-04-20 14:54 41.45242 -86.20180 11027 ft 287 kts 167°
2026-04-20 14:55 41.43267 -86.19563 11328 ft 302 kts 167°
2026-04-20 14:55 41.41167 -86.18897 11611 ft 317 kts 166°
2026-04-20 14:55 41.38965 -86.18201 11867 ft 332 kts 167°
2026-04-20 14:55 41.36671 -86.17485 12101 ft 346 kts 167°
2026-04-20 14:56 41.34268 -86.16721 12310 ft 361 kts 166°
2026-04-20 14:56 41.31813 -86.15949 12642 ft 369 kts 167°
2026-04-20 14:56 41.29289 -86.15162 13240 ft 371 kts 167°
2026-04-20 14:56 41.26797 -86.14370 13825 ft 375 kts 166°
2026-04-20 14:57 41.24212 -86.13560 14394 ft 378 kts 167°
2026-04-20 14:57 41.21624 -86.12755 14946 ft 381 kts 167°
2026-04-20 14:57 41.19050 -86.11940 15472 ft 384 kts 166°
2026-04-20 14:57 41.16444 -86.11125 15983 ft 387 kts 167°
2026-04-20 14:58 41.13803 -86.10304 16481 ft 390 kts 167°
2026-04-20 14:58 41.11140 -86.09464 16959 ft 393 kts 166°
2026-04-20 14:58 41.08450 -86.08625 17429 ft 395 kts 167°
2026-04-20 14:58 41.05785 -86.07798 17874 ft 398 kts 167°
2026-04-20 14:59 41.03067 -86.06944 18306 ft 401 kts 166°
2026-04-20 14:59 41.00364 -86.06098 18742 ft 403 kts 166°
2026-04-20 14:59 40.97612 -86.05264 19190 ft 406 kts 167°
2026-04-20 14:59 40.94836 -86.04532 19626 ft 408 kts 169°
2026-04-20 15:00 40.92007 -86.03918 20054 ft 410 kts 171°
2026-04-20 15:00 40.89194 -86.03411 20463 ft 413 kts 173°
2026-04-20 15:00 40.86326 -86.02952 20862 ft 415 kts 173°
2026-04-20 15:00 40.83451 -86.02516 21246 ft 417 kts 173°
2026-04-20 15:01 40.80564 -86.02062 21617 ft 419 kts 173°
2026-04-20 15:01 40.77679 -86.01599 21970 ft 421 kts 173°
2026-04-20 15:01 40.74751 -86.01121 22323 ft 423 kts 173°
2026-04-20 15:01 40.71809 -86.00611 22661 ft 425 kts 172°
2026-04-20 15:02 40.68854 -86.00096 22992 ft 427 kts 172°
2026-04-20 15:02 40.65907 -85.99597 23312 ft 430 kts 173°
2026-04-20 15:02 40.62932 -85.99103 23679 ft 432 kts 173°
2026-04-20 15:02 40.59933 -85.98589 24054 ft 434 kts 172°
2026-04-20 15:03 40.56965 -85.98079 24419 ft 436 kts 173°
2026-04-20 15:03 40.53940 -85.97572 24775 ft 439 kts 173°
2026-04-20 15:03 40.50907 -85.97062 25126 ft 441 kts 172°
2026-04-20 15:03 40.47828 -85.96533 25465 ft 443 kts 173°
2026-04-20 15:04 40.44781 -85.96023 25791 ft 445 kts 173°
2026-04-20 15:04 40.41714 -85.95506 26104 ft 447 kts 172°
2026-04-20 15:04 40.38636 -85.94979 26407 ft 449 kts 173°
2026-04-20 15:04 40.35518 -85.94459 26710 ft 451 kts 173°
2026-04-20 15:05 40.32396 -85.93934 27010 ft 453 kts 172°
2026-04-20 15:05 40.29264 -85.93401 27296 ft 454 kts 173°
2026-04-20 15:05 40.26121 -85.92879 27575 ft 456 kts 173°
2026-04-20 15:05 40.22979 -85.92352 27807 ft 459 kts 173°
2026-04-20 15:06 40.19769 -85.91807 27926 ft 465 kts 174°
2026-04-20 15:06 40.13252 -85.90727 28079 ft 481 kts 177°
2026-04-20 15:07 40.06476 -85.89652 28228 ft 498 kts 178°
2026-04-20 15:07 39.99477 -85.88535 28389 ft 513 kts 178°
2026-04-20 15:08 39.92296 -85.87323 28621 ft 526 kts 177°
2026-04-20 15:08 39.88677 -85.86694 28851 ft 529 kts 177°
2026-04-20 15:08 39.85037 -85.86064 29134 ft 530 kts 177°
2026-04-20 15:08 39.81355 -85.85456 29399 ft 532 kts 178°
2026-04-20 15:09 39.77669 -85.84864 29649 ft 534 kts 177°
2026-04-20 15:09 39.73966 -85.84254 29897 ft 536 kts 177°
2026-04-20 15:09 39.70268 -85.83632 30154 ft 538 kts 177°
2026-04-20 15:09 39.66550 -85.83001 30470 ft 538 kts 177°
2026-04-20 15:10 39.62854 -85.82376 30869 ft 535 kts 177°
2026-04-20 15:10 39.59199 -85.81779 31380 ft 529 kts 178°
2026-04-20 15:10 39.55576 -85.81191 31975 ft 521 kts 178°
2026-04-20 15:10 39.51999 -85.80604 32472 ft 517 kts 178°
2026-04-20 15:11 39.48436 -85.80017 32840 ft 515 kts 178°
2026-04-20 15:11 39.44853 -85.79449 33080 ft 516 kts 179°
2026-04-20 15:11 39.41294 -85.78885 33206 ft 520 kts 178°
2026-04-20 15:12 39.34044 -85.77688 33407 ft 528 kts 178°
2026-04-20 15:12 39.30429 -85.77079 33601 ft 529 kts 178°
2026-04-20 15:12 39.26744 -85.76467 33861 ft 529 kts 178°
2026-04-20 15:12 39.23133 -85.75889 34163 ft 527 kts 179°
2026-04-20 15:13 39.19464 -85.75310 34471 ft 526 kts 179°
2026-04-20 15:13 39.15825 -85.74733 34695 ft 526 kts 179°
2026-04-20 15:13 39.12227 -85.74155 34941 ft 526 kts 179°
2026-04-20 15:13 39.08605 -85.73560 35183 ft 525 kts 179°
2026-04-20 15:14 39.04947 -85.72953 35334 ft 525 kts 179°
2026-04-20 15:14 38.97748 -85.71749 35435 ft 523 kts 179°
2026-04-20 15:15 38.90533 -85.70613 35433 ft 519 kts 180°
2026-04-20 15:15 38.83358 -85.69446 35427 ft 518 kts 179°
2026-04-20 15:16 38.76233 -85.68302 35417 ft 517 kts 180°
2026-04-20 15:16 38.69103 -85.67161 35416 ft 517 kts 180°
2026-04-20 15:17 38.61976 -85.66015 35408 ft 514 kts 180°
2026-04-20 15:17 38.54888 -85.64883 35405 ft 513 kts 180°
2026-04-20 15:18 38.47801 -85.63754 35405 ft 512 kts 180°
2026-04-20 15:18 38.40740 -85.62630 35405 ft 512 kts 180°
2026-04-20 15:19 38.33674 -85.61507 35404 ft 512 kts 180°
2026-04-20 15:19 38.26608 -85.60387 35406 ft 511 kts 180°
2026-04-20 15:20 38.19525 -85.59264 35409 ft 511 kts 180°
2026-04-20 15:20 38.12510 -85.58131 35405 ft 508 kts 180°
2026-04-20 15:21 38.05541 -85.57038 35403 ft 504 kts 181°
2026-04-20 15:21 37.98570 -85.56007 35400 ft 503 kts 181°
2026-04-20 15:22 37.91609 -85.54997 35395 ft 502 kts 181°
2026-04-20 15:22 37.84702 -85.54000 35393 ft 502 kts 181°
2026-04-20 15:23 37.77737 -85.52991 35390 ft 502 kts 181°
2026-04-20 15:23 37.70804 -85.51952 35389 ft 501 kts 181°
2026-04-20 15:24 37.63867 -85.50941 35384 ft 501 kts 181°
2026-04-20 15:24 37.56938 -85.49938 35382 ft 500 kts 181°
2026-04-20 15:25 37.50056 -85.48916 35380 ft 500 kts 181°
2026-04-20 15:25 37.43141 -85.47911 35379 ft 500 kts 181°
2026-04-20 15:26 37.36229 -85.46912 35379 ft 500 kts 181°
2026-04-20 15:26 37.29313 -85.45892 35379 ft 499 kts 181°
2026-04-20 15:26 37.25830 -85.45390 35044 ft 505 kts 181°
2026-04-20 15:27 37.23539 -85.45052 34804 ft 506 kts 181°
2026-04-20 15:27 37.18880 -85.44357 34224 ft 503 kts 181°
2026-04-20 15:27 37.16578 -85.44021 33900 ft 502 kts 181°
2026-04-20 15:27 37.12594 -85.43445 33328 ft 499 kts 181°
2026-04-20 15:28 37.10264 -85.43109 32991 ft 498 kts 181°
2026-04-20 15:28 37.06829 -85.42614 32492 ft 496 kts 181°
2026-04-20 15:28 37.03435 -85.42124 31998 ft 494 kts 181°
2026-04-20 15:28 37.00015 -85.41631 31498 ft 493 kts 181°
2026-04-20 15:29 36.96601 -85.41138 30999 ft 493 kts 181°
2026-04-20 15:29 36.93299 -85.40662 30517 ft 494 kts 181°
2026-04-20 15:29 36.89885 -85.40172 30019 ft 494 kts 181°
2026-04-20 15:29 36.86484 -85.39684 29522 ft 493 kts 181°
2026-04-20 15:30 36.83062 -85.39191 29020 ft 492 kts 181°
2026-04-20 15:30 36.79681 -85.38703 28521 ft 489 kts 181°
2026-04-20 15:30 36.76269 -85.38207 28015 ft 487 kts 181°
2026-04-20 15:30 36.72973 -85.37726 27523 ft 484 kts 181°
2026-04-20 15:31 36.69629 -85.37234 27021 ft 481 kts 181°
2026-04-20 15:31 36.66301 -85.36743 26518 ft 478 kts 181°
2026-04-20 15:31 36.63002 -85.36276 26016 ft 474 kts 182°
2026-04-20 15:31 36.59731 -85.35831 25515 ft 471 kts 182°
2026-04-20 15:32 36.56477 -85.35375 25014 ft 468 kts 181°
2026-04-20 15:32 36.53282 -85.34910 24517 ft 465 kts 181°
2026-04-20 15:32 36.50042 -85.34454 24011 ft 462 kts 182°
2026-04-20 15:32 36.46877 -85.34018 23514 ft 459 kts 182°
2026-04-20 15:33 36.43709 -85.33580 23013 ft 456 kts 182°
2026-04-20 15:33 36.40572 -85.33127 22514 ft 453 kts 182°
2026-04-20 15:33 36.37422 -85.32682 22009 ft 450 kts 182°
2026-04-20 15:33 36.34361 -85.32252 21515 ft 447 kts 182°
2026-04-20 15:34 36.31264 -85.31818 21012 ft 445 kts 182°
2026-04-20 15:34 36.28184 -85.31385 20509 ft 442 kts 182°
2026-04-20 15:34 36.25124 -85.30952 20008 ft 439 kts 182°
2026-04-20 15:34 36.22176 -85.30531 19557 ft 435 kts 182°
2026-04-20 15:35 36.19169 -85.30097 19102 ft 432 kts 182°
2026-04-20 15:35 36.16191 -85.29664 18651 ft 429 kts 182°
2026-04-20 15:35 36.13238 -85.29231 18200 ft 426 kts 182°
2026-04-20 15:35 36.10283 -85.28810 17747 ft 424 kts 182°
2026-04-20 15:36 36.07395 -85.28419 17302 ft 421 kts 183°
2026-04-20 15:36 36.04487 -85.28027 16851 ft 419 kts 183°
2026-04-20 15:36 36.01636 -85.27619 16407 ft 417 kts 182°
2026-04-20 15:36 35.98757 -85.27206 15949 ft 417 kts 179°
2026-04-20 15:37 35.95877 -85.26794 15504 ft 416 kts 178°
2026-04-20 15:37 35.93000 -85.26376 15054 ft 415 kts 178°
2026-04-20 15:37 35.90126 -85.25961 14603 ft 414 kts 178°
2026-04-20 15:37 35.87281 -85.25556 14252 ft 409 kts 178°
2026-04-20 15:38 35.84494 -85.25160 13992 ft 396 kts 178°
2026-04-20 15:38 35.81801 -85.24771 13732 ft 382 kts 178°
2026-04-20 15:38 35.79195 -85.24396 13474 ft 369 kts 178°
2026-04-20 15:38 35.76691 -85.24039 13218 ft 358 kts 178°
2026-04-20 15:39 35.74239 -85.23706 12961 ft 348 kts 179°
2026-04-20 15:39 35.71889 -85.23402 12708 ft 339 kts 179°
2026-04-20 15:39 35.69572 -85.23102 12454 ft 331 kts 178°
2026-04-20 15:39 35.67303 -85.22801 12206 ft 323 kts 178°
2026-04-20 15:40 35.65085 -85.22486 11950 ft 316 kts 178°
2026-04-20 15:40 35.62921 -85.22168 11695 ft 309 kts 178°
2026-04-20 15:40 35.60802 -85.21876 11439 ft 303 kts 178°
2026-04-20 15:40 35.58726 -85.21599 11184 ft 298 kts 178°
2026-04-20 15:41 35.56688 -85.21331 10931 ft 293 kts 178°
2026-04-20 15:41 35.54694 -85.21065 10696 ft 286 kts 178°
2026-04-20 15:41 35.52718 -85.20797 10442 ft 279 kts 178°
2026-04-20 15:41 35.50809 -85.20534 10189 ft 273 kts 178°
2026-04-20 15:42 35.48976 -85.20275 9993 ft 263 kts 178°
2026-04-20 15:42 35.47152 -85.20015 9739 ft 262 kts 178°
2026-04-20 15:42 35.45330 -85.19755 9493 ft 263 kts 178°
2026-04-20 15:42 35.43515 -85.19499 9249 ft 264 kts 178°
2026-04-20 15:43 35.41694 -85.19244 9004 ft 265 kts 178°
2026-04-20 15:43 35.39870 -85.18990 8756 ft 264 kts 178°
2026-04-20 15:43 35.38045 -85.18737 8507 ft 263 kts 178°
2026-04-20 15:43 35.36233 -85.18488 8252 ft 262 kts 178°
2026-04-20 15:44 35.34424 -85.18237 7912 ft 262 kts 178°
2026-04-20 15:44 35.32605 -85.17967 7559 ft 261 kts 177°
2026-04-20 15:44 35.30816 -85.17696 7186 ft 258 kts 177°
2026-04-20 15:44 35.29030 -85.17432 6806 ft 254 kts 178°
2026-04-20 15:45 35.27294 -85.17190 6426 ft 248 kts 177°
2026-04-20 15:45 35.25623 -85.16947 6050 ft 240 kts 177°
2026-04-20 15:45 35.24022 -85.16716 5643 ft 218 kts 178°
2026-04-20 15:45 35.22594 -85.16518 5271 ft 201 kts 177°
2026-04-20 15:46 35.21219 -85.16330 4909 ft 195 kts 177°
2026-04-20 15:46 35.19864 -85.16150 4554 ft 195 kts 177°
2026-04-20 15:46 35.18511 -85.16002 4179 ft 194 kts 180°
2026-04-20 15:46 35.17176 -85.16109 3818 ft 192 kts 188°
2026-04-20 15:47 35.15857 -85.16334 3446 ft 190 kts 191°
2026-04-20 15:47 35.14573 -85.16618 3063 ft 183 kts 193°
2026-04-20 15:47 35.13353 -85.16953 2684 ft 175 kts 195°
2026-04-20 15:47 35.12211 -85.17291 2456 ft 165 kts 195°
2026-04-20 15:48 35.11109 -85.17606 2163 ft 164 kts 194°
2026-04-20 15:48 35.09982 -85.17929 1833 ft 164 kts 195°
2026-04-20 15:48 35.08912 -85.18280 1633 ft 155 kts 197°
2026-04-20 15:48 35.07887 -85.18663 1494 ft 153 kts 198°
2026-04-20 15:49 35.06877 -85.19050 1303 ft 153 kts 198°
2026-04-20 15:49 35.05854 -85.19438 1080 ft 151 kts 197°
2026-04-20 15:49 35.04876 -85.19794 861 ft 146 kts 197°
2026-04-20 15:49 35.03931 -85.20140 695 ft 135 kts 196°
2026-04-20 15:50 35.03194 -85.20410 692 ft 82 kts 197°
2026-04-20 15:50 35.02809 -85.20552 692 ft 45 kts 197°
2026-04-20 15:50 35.02560 -85.20643 692 ft 30 kts 195°
2026-04-20 15:50 35.02405 -85.20701 692 ft 17 kts 198°
2026-04-20 15:51 35.02326 -85.20729 692 ft 9 kts 189°
2026-04-20 15:51 35.02277 -85.20711 692 ft 8 kts 131°
2026-04-20 15:51 35.02254 -85.20647 692 ft 8 kts 119°
2026-04-20 15:51 35.02234 -85.20594 692 ft 4 kts 115°
2026-04-20 15:52 35.02226 -85.20570 692 ft 2 kts 106°
2026-04-20 15:52 35.02221 -85.20551 692 ft 3 kts 107°
2026-04-20 15:52 35.02221 -85.20549 692 ft 0 kts 107°